TimeCST,TemperatureF,Dew PointF,Humidity,Sea Level PressureIn,VisibilityMPH,Wind Direction,Wind SpeedMPH,Gust SpeedMPH,PrecipitationIn,Events,Conditions,WindDirDegrees,DateUTC
12:54 AM,39.9,34.0,79,30.28,9.0,East,8.1,-,N/A,,Clear,100,2012-11-19 06:54:00
1:54 AM,39.0,34.0,82,30.28,9.0,East,6.9,-,N/A,,Clear,90,2012-11-19 07:54:00
2:54 AM,37.9,34.0,86,30.27,8.0,East,8.1,-,N/A,,Clear,90,2012-11-19 08:54:00
3:54 AM,39.9,35.1,83,30.26,9.0,East,6.9,-,N/A,,Clear,90,2012-11-19 09:54:00
4:54 AM,39.9,35.1,83,30.27,9.0,East,6.9,-,N/A,,Clear,100,2012-11-19 10:54:00
5:54 AM,41.0,36.0,82,30.27,9.0,ESE,10.4,-,N/A,,Clear,110,2012-11-19 11:54:00
6:54 AM,42.1,37.0,82,30.27,8.0,East,6.9,-,N/A,,Clear,100,2012-11-19 12:54:00
7:54 AM,44.1,37.9,79,30.27,7.0,East,6.9,-,N/A,,Clear,80,2012-11-19 13:54:00
8:54 AM,46.0,39.0,76,30.27,8.0,East,5.8,-,N/A,,Overcast,90,2012-11-19 14:54:00
9:54 AM,50.0,39.9,68,30.27,9.0,East,5.8,-,N/A,,Overcast,90,2012-11-19 15:54:00
10:54 AM,53.1,41.0,64,30.26,10.0,Calm,Calm,-,N/A,,Overcast,0,2012-11-19 16:54:00
11:54 AM,54.0,39.0,57,30.23,10.0,South,6.9,-,N/A,,Overcast,190,2012-11-19 17:54:00
12:54 PM,55.9,37.9,51,30.20,10.0,South,5.8,-,N/A,,Overcast,180,2012-11-19 18:54:00
1:54 PM,55.9,41.0,57,30.18,10.0,South,6.9,-,N/A,,Overcast,180,2012-11-19 19:54:00
2:54 PM,55.9,41.0,57,30.16,10.0,SSE,5.8,-,N/A,,Overcast,160,2012-11-19 20:54:00
3:54 PM,55.9,41.0,57,30.16,7.0,SSE,4.6,-,N/A,,Mostly Cloudy,160,2012-11-19 21:54:00
4:54 PM,51.1,39.9,66,30.14,10.0,SE,6.9,-,N/A,,Clear,140,2012-11-19 22:54:00
5:54 PM,50.0,39.9,68,30.14,10.0,SSE,8.1,-,N/A,,Mostly Cloudy,150,2012-11-19 23:54:00
6:54 PM,46.9,39.0,74,30.14,10.0,Calm,Calm,-,N/A,,Scattered Clouds,0,2012-11-20 00:54:00
7:54 PM,46.0,37.9,73,30.14,10.0,Calm,Calm,-,N/A,,Mostly Cloudy,0,2012-11-20 01:54:00
8:54 PM,45.0,37.9,76,30.14,10.0,Calm,Calm,-,N/A,,Mostly Cloudy,0,2012-11-20 02:54:00
9:54 PM,44.1,37.9,79,30.13,10.0,Calm,Calm,-,N/A,,Scattered Clouds,0,2012-11-20 03:54:00
10:54 PM,43.0,39.0,86,30.13,10.0,Calm,Calm,-,N/A,,Mostly Cloudy,0,2012-11-20 04:54:00
11:54 PM,44.1,37.9,79,30.13,10.0,South,3.5,-,N/A,,Partly Cloudy,180,2012-11-20 05:54:00